When you browse on this site, cookies collect data to enhance your experience and personalize the content and advertising you see.
Visit our Privacy Policy to learn more. By continuing to use the site, you agree to this use of cookies and data.
  • In Österreich
  • Länderverzeichnis
  • Für 7 Tage
  • Wassertemperatur
  • Satellitenkarten
  • Wetterkarte
  • News
  • Widgets
  • user-avatar
    Anmelden

    Stündliche Wetter Tarpon Springs

    Heute, 21 März, Donnerstag

    Zeit Temperatur Niederschläge Wind Luftdruck Luftfeuchtigkeit
    00:00 +19°C° 0 mm 2 m/S 763 mmHg 60%
    01:00 +18°C° 0 mm 2 m/S 763 mmHg 62%
    02:00 +18°C° 0 mm 2 m/S 763 mmHg 64%
    03:00 +18°C° 0 mm 2 m/S 763 mmHg 66%
    04:00 +17°C° 0 mm 2 m/S 763 mmHg 66%
    05:00 +17°C° 0 mm 2 m/S 763 mmHg 65%
    06:00 +17°C° 0 mm 2 m/S 763 mmHg 65%
    07:00 +18°C° 0 mm 2 m/S 763 mmHg 58%
    08:00 +19°C° 0 mm 2 m/S 763 mmHg 51%
    09:00 +20°C° 0 mm 2 m/S 764 mmHg 44%
    10:00 +21°C° 0 mm 3 m/S 763 mmHg 41%
    11:00 +22°C° 0 mm 4 m/S 763 mmHg 38%
    12:00 +22°C° 0 mm 5 m/S 763 mmHg 35%
    13:00 +22°C° 0 mm 5 m/S 762 mmHg 37%
    14:00 +22°C° 0 mm 6 m/S 761 mmHg 38%
    15:00 +22°C° 0 mm 6 m/S 761 mmHg 40%
    16:00 +21°C° 0 mm 6 m/S 761 mmHg 45%
    17:00 +21°C° 0 mm 6 m/S 761 mmHg 50%
    18:00 +20°C° 0 mm 6 m/S 761 mmHg 56%
    19:00 +20°C° 0 mm 7 m/S 762 mmHg 56%
    20:00 +18°C° 0 mm 7 m/S 762 mmHg 57%
    21:00 +18°C° 0 mm 7 m/S 763 mmHg 57%
    22:00 +18°C° 0 mm 7 m/S 763 mmHg 56%
    23:00 +19°C° 0 mm 6 m/S 763 mmHg 55%

    Morgen, 22 März, Freitag

    Zeit Temperatur Niederschläge Wind Luftdruck Luftfeuchtigkeit
    00:00 +17°C° 0 mm 6 m/S 763 mmHg 54%
    01:00 +17°C° 0 mm 6 m/S 763 mmHg 53%
    02:00 +16°C° 0 mm 6 m/S 763 mmHg 52%
    03:00 +16°C° 0 mm 6 m/S 763 mmHg 51%
    04:00 +16°C° 0 mm 5 m/S 763 mmHg 52%
    05:00 +17°C° 0 mm 4 m/S 764 mmHg 54%
    06:00 +15°C° 0 mm 4 m/S 764 mmHg 55%
    07:00 +18°C° 0 mm 4 m/S 764 mmHg 51%
    08:00 +19°C° 0 mm 4 m/S 765 mmHg 48%
    09:00 +20°C° 0 mm 4 m/S 765 mmHg 44%
    10:00 +21°C° 0 mm 5 m/S 765 mmHg 43%
    11:00 +22°C° 0 mm 5 m/S 764 mmHg 43%
    12:00 +22°C° 0 mm 5 m/S 764 mmHg 42%
    13:00 +22°C° 0 mm 5 m/S 764 mmHg 43%
    14:00 +22°C° 0 mm 5 m/S 763 mmHg 44%
    15:00 +21°C° 0 mm 6 m/S 763 mmHg 45%
    16:00 +20°C° 0 mm 5 m/S 763 mmHg 48%
    17:00 +20°C° 0 mm 5 m/S 763 mmHg 50%
    18:00 +19°C° 0 mm 5 m/S 764 mmHg 53%
    19:00 +17°C° 0 mm 5 m/S 764 mmHg 53%
    20:00 +18°C° 0 mm 4 m/S 765 mmHg 53%
    21:00 +18°C° 0 mm 4 m/S 765 mmHg 54%
    22:00 +18°C° 0 mm 3 m/S 765 mmHg 55%
    23:00 +18°C° 0 mm 3 m/S 765 mmHg 57%

    übermorgen, 23 März, Samstag

    Zeit Temperatur Niederschläge Wind Luftdruck Luftfeuchtigkeit
    00:00 +17°C° 0 mm 3 m/S 765 mmHg 59%
    01:00 +17°C° 0 mm 3 m/S 765 mmHg 62%
    02:00 +17°C° 0 mm 2 m/S 764 mmHg 64%
    03:00 +16°C° 0 mm 2 m/S 764 mmHg 67%
    04:00 +16°C° 0 mm 2 m/S 765 mmHg 68%
    05:00 +16°C° 0 mm 3 m/S 765 mmHg 69%
    06:00 +14°C° 0 mm 3 m/S 766 mmHg 70%
    07:00 +17°C° 0 mm 3 m/S 766 mmHg 61%
    08:00 +19°C° 0 mm 3 m/S 767 mmHg 51%
    09:00 +20°C° 0 mm 3 m/S 767 mmHg 42%
    10:00 +21°C° 0 mm 2 m/S 767 mmHg 38%
    11:00 +24°C° 0 mm 2 m/S 767 mmHg 34%
    12:00 +25°C° 0 mm 1 m/S 767 mmHg 30%
    13:00 +25°C° 0 mm 2 m/S 766 mmHg 30%
    14:00 +26°C° 0 mm 3 m/S 766 mmHg 29%
    15:00 +26°C° 0 mm 3 m/S 765 mmHg 29%
    16:00 +25°C° 0 mm 4 m/S 765 mmHg 34%
    17:00 +23°C° 0 mm 4 m/S 765 mmHg 39%
    18:00 +21°C° 0 mm 4 m/S 766 mmHg 44%
    19:00 +21°C° 0 mm 4 m/S 766 mmHg 46%
    20:00 +20°C° 0 mm 4 m/S 766 mmHg 48%
    21:00 +20°C° 0 mm 4 m/S 767 mmHg 51%
    22:00 +19°C° 0 mm 4 m/S 767 mmHg 53%
    23:00 +19°C° 0 mm 4 m/S 767 mmHg 56%

    24 März, Sonntag

    Zeit Temperatur Niederschläge Wind Luftdruck Luftfeuchtigkeit
    00:00 +18°C° 0 mm 4 m/S 766 mmHg 58%
    01:00 +18°C° 0 mm 4 m/S 766 mmHg 60%
    02:00 +18°C° 0 mm 4 m/S 766 mmHg 63%
    03:00 +17°C° 0 mm 4 m/S 766 mmHg 65%
    04:00 +17°C° 0 mm 4 m/S 766 mmHg 66%
    05:00 +17°C° 0 mm 4 m/S 766 mmHg 67%
    06:00 +17°C° 0 mm 4 m/S 767 mmHg 68%
    07:00 +19°C° 0 mm 4 m/S 767 mmHg 61%
    08:00 +21°C° 0 mm 4 m/S 767 mmHg 54%
    09:00 +22°C° 0 mm 5 m/S 768 mmHg 48%
    10:00 +25°C° 0 mm 4 m/S 767 mmHg 44%
    11:00 +26°C° 0 mm 3 m/S 767 mmHg 40%
    12:00 +27°C° 0 mm 2 m/S 766 mmHg 37%
    13:00 +27°C° 0 mm 2 m/S 766 mmHg 36%
    14:00 +28°C° 0 mm 3 m/S 765 mmHg 36%
    15:00 +28°C° 0 mm 3 m/S 764 mmHg 36%
    16:00 +27°C° 0 mm 3 m/S 765 mmHg 41%
    17:00 +25°C° 0 mm 4 m/S 765 mmHg 46%
    18:00 +23°C° 0 mm 4 m/S 765 mmHg 51%
    19:00 +24°C° 0 mm 3 m/S 765 mmHg 52%
    20:00 +22°C° 0 mm 3 m/S 765 mmHg 54%
    21:00 +23°C° 0 mm 2 m/S 765 mmHg 55%
    22:00 +21°C° 0 mm 2 m/S 765 mmHg 59%
    23:00 +21°C° 0 mm 3 m/S 764 mmHg 62%

    25 März, Montag

    Zeit Temperatur Niederschläge Wind Luftdruck Luftfeuchtigkeit
    00:00 +21°C° 0 mm 3 m/S 764 mmHg 65%
    01:00 +20°C° 0 mm 3 m/S 764 mmHg 68%
    02:00 +20°C° 0 mm 3 m/S 763 mmHg 70%
    03:00 +20°C° 0 mm 3 m/S 763 mmHg 73%
    04:00 +19°C° 0 mm 3 m/S 763 mmHg 73%
    05:00 +19°C° 0 mm 4 m/S 763 mmHg 73%
    06:00 +19°C° 0 mm 4 m/S 763 mmHg 74%
    07:00 +21°C° 0 mm 4 m/S 763 mmHg 68%
    08:00 +22°C° 0 mm 4 m/S 763 mmHg 62%
    09:00 +25°C° 0 mm 5 m/S 763 mmHg 56%
    10:00 +26°C° 0 mm 5 m/S 763 mmHg 54%
    11:00 +27°C° 0 mm 5 m/S 763 mmHg 52%
    12:00 +28°C° 0 mm 5 m/S 762 mmHg 50%
    13:00 +27°C° 0 mm 5 m/S 762 mmHg 52%
    14:00 +27°C° 0 mm 5 m/S 761 mmHg 54%
    15:00 +27°C° 0 mm 5 m/S 761 mmHg 57%
    16:00 +26°C° 0 mm 5 m/S 761 mmHg 62%
    17:00 +25°C° 0 mm 5 m/S 761 mmHg 67%
    18:00 +23°C° 0 mm 4 m/S 761 mmHg 72%
    19:00 +23°C° 0 mm 4 m/S 762 mmHg 73%
    20:00 +22°C° 0 mm 4 m/S 762 mmHg 74%
    21:00 +22°C° 0 mm 4 m/S 762 mmHg 75%
    22:00 +22°C° 0 mm 4 m/S 762 mmHg 76%
    23:00 +22°C° 0 mm 5 m/S 761 mmHg 77%

    26 März, Dienstag

    Zeit Temperatur Niederschläge Wind Luftdruck Luftfeuchtigkeit
    00:00 +21°C° 0 mm 5 m/S 761 mmHg 78%
    01:00 +21°C° 0 mm 5 m/S 761 mmHg 79%
    02:00 +21°C° 0 mm 5 m/S 761 mmHg 81%
    03:00 +21°C° 0 mm 6 m/S 761 mmHg 83%
    04:00 +21°C° 0 mm 6 m/S 761 mmHg 82%
    05:00 +21°C° 0 mm 5 m/S 762 mmHg 82%
    06:00 +20°C° 0 mm 5 m/S 762 mmHg 81%
    07:00 +21°C° 0 mm 5 m/S 762 mmHg 71%
    08:00 +22°C° 0 mm 5 m/S 763 mmHg 60%
    09:00 +23°C° 0 mm 5 m/S 763 mmHg 50%
    10:00 +24°C° 0 mm 6 m/S 763 mmHg 46%
    11:00 +24°C° 0 mm 6 m/S 763 mmHg 43%
    12:00 +26°C° 0 mm 7 m/S 763 mmHg 40%
    13:00 +24°C° 0 mm 7 m/S 763 mmHg 40%
    14:00 +24°C° 0 mm 7 m/S 763 mmHg 40%
    15:00 +24°C° 0 mm 7 m/S 762 mmHg 41%
    16:00 +23°C° 0 mm 7 m/S 763 mmHg 44%
    17:00 +22°C° 0 mm 6 m/S 764 mmHg 48%
    18:00 +21°C° 0 mm 6 m/S 764 mmHg 52%
    19:00 +20°C° 0 mm 6 m/S 765 mmHg 53%
    20:00 +20°C° 0 mm 6 m/S 765 mmHg 54%
    21:00 +20°C° 0 mm 7 m/S 766 mmHg 55%
    22:00 +18°C° 0 mm 7 m/S 766 mmHg 59%
    23:00 +17°C° 0 mm 6 m/S 766 mmHg 63%
    Mehr zeigen